Location: Bollersen
(52.7926°N, 9.9817°E)
Time: 19:43:39
(UTC+00:00)

Daily predictions for brighter satellites

Satellite Brightness Start Highest point End
(mag) Time Altitude Azimuth Time Altitude Azimuth Time Altitude Azimuth
NOSS 3-4 (A) 3.8 16:53:35 10° NW 16:59:59 68° NE 17:07:35 10° ESE
NOSS 3-4 (C) 3.8 16:53:51 10° NW 17:00:16 67° NE 17:07:53 10° ESE
Cosmos 2227 Rocket 3.7 17:00:47 10° SE 17:04:03 16° E 17:07:20 10° ENE
Cosmos 1025 Rocket 3.3 17:00:55 10° SSE 17:05:02 46° E 17:09:12 10° NNE
Aureole 3 Rocket 3.1 17:01:55 10° N 17:05:43 37° ENE 17:08:47 10° SE
Thor Agena Rocket 4.4 17:06:29 10° S 17:11:29 56° WSW 17:16:37 10° NNW
Cosmos 2150 Rocket 4.4 17:06:47 10° NNW 17:11:40 40° NE 17:16:28 10° ESE
Sich 1 Rocket 3.6 17:09:49 10° N 17:14:23 68° ENE 17:18:55 10° SSE
Cosmos 2298 Rocket 4.5 17:10:38 10° NNW 17:15:39 41° NE 17:20:39 10° SE
ATLAS 2AS CENTAUR R/B 3.6 17:10:35 10° W 17:17:02 40° NNW 17:23:24 10° NE
GP-B 3.2 17:13:15 10° S 17:17:38 81° W 17:22:01 10° N
SKYMED 2 3.8 17:13:45 10° NNE 17:17:59 49° E 17:22:11 10° S
Cosmos 2123 Rocket 4.3 17:12:54 10° SSW 17:19:12 74° WNW 17:25:32 10° N
Resurs 1-3 3.5 17:16:50 10° SSE 17:21:06 67° ENE 17:25:23 10° N
ATLAS CENTAUR R/B 2.9 17:21:43 10° N 17:22:12 10° NNE 17:22:42 10° NNE
Lacrosse 5 rocket 1.4 17:21:07 10° W 17:24:34 54° NNW 17:27:50 12° ENE
CZ-4 R/B 3.1 17:27:51 12° ENE 17:28:20 12° NE 17:29:44 10° NNE
Resurs 01 Rocket 2.1 17:24:33 10° SE 17:28:39 39° ENE 17:32:47 10° N
Cosmos 1782 3.7 17:28:15 10° NNE 17:31:11 23° ENE 17:34:05 10° ESE
SPOT 1/Viking Rocket 4.0 17:29:49 10° S 17:34:54 65° WSW 17:40:02 10° NNW
Cosmos 1674 Rocket 3.8 17:30:36 10° SSW 17:34:59 77° W 17:39:27 10° N
USA 267 3.3 17:30:30 10° ENE 17:37:05 79° SSE 17:43:39 10° WSW
CARTOSAT-1 3.5 17:35:01 10° SSE 17:39:08 60° ENE 17:43:18 10° N
Radarsat Rocket 4.0 17:36:28 10° SSE 17:42:23 83° ENE 17:48:55 10° NNW
ARIANE 6 FM1 Upper Stage 2.9 17:38:56 10° NW 17:42:46 45° NNE 17:45:29 18° E
Cosmos 2082 Rocket 4.4 17:39:47 10° NW 17:42:47 14° NNW 17:45:48 10° NNE
SL-19 R/B 4.4 17:38:40 10° SSE 17:44:45 72° ENE 17:50:33 10° NNW
Cosmos 2297 Rocket 2.2 17:42:11 10° SSW 17:47:46 65° ESE 17:53:24 10° NE
RESURS DK-1 4.0 17:45:43 10° N 17:48:25 17° NE 17:49:28 16° NE
Cosmos 1943 4.3 17:44:03 10° NNW 17:48:53 27° NE 17:51:55 18° E
Cosmos 1447 Rocket 4.4 17:43:04 10° S 17:49:11 79° E 17:55:21 10° NNE
SPOT 5 3.7 17:52:21 13° ESE 17:56:03 32° ENE 18:00:34 10° N
SeaSat 1 3.8 17:53:16 10° S 17:57:52 41° WSW 18:02:31 10° NW
SJ-6B 2.6 17:55:41 10° SE 17:59:00 47° ENE 18:02:20 10° N
Tiangong 0.6 17:58:47 10° S 17:59:08 10° S 17:59:29 10° SSE
IRAS Rocket 4.2 17:53:58 10° SE 17:59:30 64° ENE 18:05:06 10° NNW
Okean O Rocket 3.8 18:01:49 10° NE 18:01:49 10° NE 18:01:51 10° NE
Cosmos 2228 2.8 17:59:10 10° N 18:03:20 65° ENE 18:07:31 10° SSE
PSLV R/B 3.5 17:59:47 10° S 18:03:54 78° WSW 18:08:01 10° NNW
COSMO-SKYMED 1 2.3 17:59:46 10° NNE 18:03:55 81° ESE 18:08:02 10° SSW
Cosmos 1544 Rocket 4.0 18:01:59 10° N 18:06:04 38° ENE 18:08:59 17° SE
Meteor 1-31 Rocket 3.3 18:06:27 30° ENE 18:06:36 30° ENE 18:09:39 10° N
NOSS 3-3 (C) 3.9 18:01:29 10° SW 18:06:53 80° NW 18:13:04 12° NE
Cosmos 1570 Rocket 3.9 18:03:12 10° SSW 18:08:27 77° ESE 18:13:43 10° NNE
CZ-2D R/B 4.3 18:04:58 10° S 18:08:48 51° W 18:12:46 10° NNW
YAOGAN 3 4.5 18:05:01 10° SSE 18:09:13 86° WSW 18:13:28 10° NNW
Cosmos 2344 4.0 18:03:42 10° S 18:10:31 34° ESE 18:14:29 20° ENE
Cosmos 1455 Rocket 3.5 18:06:46 10° NNW 18:11:02 64° W 18:15:17 10° S
YAOGAN 1 3.9 18:08:59 10° S 18:13:02 42° W 18:17:06 10° NNW
ADEOS 4.5 18:13:07 25° E 18:14:15 28° ENE 18:18:36 10° N
CZ-4B R/B 4.2 18:12:55 28° ESE 18:14:25 41° ENE 18:18:04 10° N
Cosmos 2263 Rocket 2.9 18:09:38 10° SSE 18:14:34 31° ESE 18:16:41 24° ENE
Cosmos 2034 Rocket 4.0 18:08:47 10° N 18:14:52 56° ENE 18:20:57 10° SSE
DMSP B5D1-3 4.5 18:09:57 10° NNE 18:15:03 63° ESE 18:20:07 10° S
Cosmos 1975 Rocket 3.0 18:11:21 10° S 18:15:37 60° E 18:19:53 10° NNE
Cosmos 1072 Rocket 4.4 18:09:33 10° N 18:15:51 85° E 18:22:01 10° S
Cosmos 2237 Rocket 3.5 18:14:38 10° NW 18:19:57 42° WSW 18:25:14 10° S
Cosmos 1634 Rocket 4.4 18:15:16 10° N 18:21:10 39° ENE 18:24:28 23° ESE
DNEPR-1 R/B 4.4 18:19:53 10° NW 18:24:38 62° SW 18:30:19 10° SSE
Cosmos 773 Rocket 3.9 18:19:38 10° SSW 18:24:54 81° ESE 18:30:13 10° NNE
Cosmos 972 Rocket 4.2 18:25:21 10° NNW 18:30:08 45° ENE 18:31:38 36° ESE
Terra 2.9 18:31:23 26° NE 18:31:23 26° NE 18:34:39 10° N
Cosmos 2208 Rocket 3.9 18:25:36 10° SSW 18:30:51 84° ESE 18:36:14 10° NNE
NOSS 3-3 (A) 4.3 18:28:03 10° WSW 18:33:28 58° NNW 18:38:43 16° NE
Meteor 2-17 Rocket 4.4 18:31:04 10° SSW 18:37:08 85° W 18:43:14 10° N
Cosmos 1346 Rocket 2.3 18:36:02 10° S 18:39:38 75° E 18:40:09 61° NE
Cosmos 44 Rocket 3.3 18:35:05 10° SW 18:40:02 85° SE 18:42:35 30° NE
TSX-5 4.1 18:35:11 10° NW 18:40:33 85° NE 18:42:13 40° SE
Cosmos 1464 Rocket 4.3 18:35:33 10° NNW 18:41:54 72° W 18:48:10 10° S
Cosmos 2279 Rocket 4.4 18:36:27 10° N 18:42:13 38° ENE 18:43:01 37° E
Cosmos 1602 3.8 18:40:35 10° SSW 18:43:14 49° W 18:43:14 49° W
CZ-4C R/B 3.0 18:40:12 10° W 18:44:44 43° NNW 18:48:40 19° NE
SL-16 R/B 2.3 18:41:09 10° NNW 18:46:50 78° WSW 18:50:49 20° SSE
Cosmos 2227 Rocket 2.1 18:41:32 10° SSW 18:47:10 79° ESE 18:51:30 18° NE
ATLAS CENTAUR R/B 3.0 18:54:10 10° NNW 18:54:54 15° NNW 18:54:54 15° NNW
MetOp-B 4.2 18:57:17 51° ENE 18:57:32 51° ENE 19:02:43 10° N
CZ-4 R/B 1.9 19:02:50 45° N 19:02:50 45° N 19:05:32 10° NNW
Lacrosse 5 rocket 2.0 18:58:23 10° WNW 19:01:16 39° NNW 19:01:16 39° NNW
Resurs 01 Rocket 3.6 19:01:16 10° SSW 19:05:07 29° W 19:09:01 10° NNW
Cosmos 1782 4.2 19:02:43 10° NNW 19:05:58 33° W 19:09:13 10° SSW
ATLAS 2AS CENTAUR R/B 3.7 19:03:24 10° WNW 19:09:34 34° N 19:11:46 28° NE
CZ-4B R/B 3.0 19:12:00 67° ENE 19:12:07 67° ENE 19:17:23 10° NNW
CSL-04 Debris 4.3 19:12:12 25° S 19:15:30 73° WSW 19:20:57 10° NNW
CZ-4B DEB 4.1 19:14:53 42° S 19:16:51 83° WSW 19:22:21 10° NNW
ERS-1 Rocket 3.1 19:20:01 62° NNE 19:20:01 62° NNE 19:24:20 10° NNW
USA 267 3.4 19:17:49 42° NE 19:20:04 66° N 19:26:33 10° W
CSL-04 Rocket 4.0 19:17:14 21° S 19:20:43 61° WSW 19:25:59 10° NNW
ARIANE 6 FM1 Upper Stage 3.8 19:18:04 10° WNW 19:21:31 37° WSW 19:21:31 37° WSW
RESURS DK-1 3.7 19:22:26 10° NNW 19:24:45 33° NNW 19:24:45 33° NNW
Cosmos 2082 Rocket 4.4 19:26:47 10° NNW 19:29:29 13° NNE 19:30:22 13° NNE
Cosmos 2297 Rocket 3.7 19:27:08 10° WSW 19:32:13 33° NW 19:37:03 11° NNE
Cosmos 1943 3.1 19:27:52 10° NNW 19:33:37 86° WSW 19:33:42 85° SSW
SPOT 5 3.8 19:31:23 27° SSW 19:33:48 48° W 19:38:46 10° NNW
Okean O Rocket 3.6 19:39:04 20° N 19:39:04 20° N 19:40:25 10° N
Tsikada Rocket 3.9 19:30:20 10° SSW 19:36:29 81° W 19:42:44 10° N
MOS 1 4.3 19:38:44 69° SSW 19:39:20 77° WSW 19:45:03 10° NNW
Cosmos 2219 4.3 19:42:31 10° SSW 19:45:34 33° SSW 19:45:34 33° SSW
Cosmos 1603 4.2 19:43:48 10° NNW 19:48:05 50° N 19:48:05 50° N
ADEOS 4.0 19:53:50 57° W 19:53:50 57° W 19:58:34 10° NNW
Cosmos 2263 Rocket 2.6 19:52:35 10° SW 19:58:11 59° NW 19:58:29 58° NW
Terra 3.4 20:10:00 31° NW 20:10:00 31° NW 20:12:37 10° NNW
Cosmos 1833 Rocket 4.4 20:12:29 10° NNW 20:15:10 24° N 20:15:10 24° N
Cosmos 2344 3.5 20:16:51 10° WSW 20:24:17 70° NW 20:24:32 70° NNW
Cosmos 2227 Rocket 3.9 20:26:57 10° W 20:31:49 29° NW 20:33:22 25° NNW
CZ-4C R/B 3.8 20:29:32 10° WNW 20:33:37 30° NNW 20:33:37 30° NNW
ATLAS 2AS CENTAUR R/B 3.8 20:55:01 10° NW 20:59:11 38° NNW 20:59:11 38° NNW
USA 267 4.3 21:05:09 41° NW 21:05:09 41° NW 21:09:19 10° WNW
